When you browse on this site, cookies collect data to enhance your experience and personalize the content and advertising you see.
Visit our Privacy Policy to learn more. By continuing to use the site, you agree to this use of cookies and data.
  • In Österreich
  • Länderverzeichnis
  • Für 7 Tage
  • Wassertemperatur
  • Satellitenkarten
  • Wetterkarte
  • News
  • Widgets
  • user-avatar
    Anmelden

    Stündliche Wetter Kitzbühel

    Heute, 25 Mai, Samstag

    Zeit Temperatur Niederschläge Wind Luftdruck Luftfeuchtigkeit
    00:00 +9°C° 0 mm 1 m/S 675 mmHg 85%
    01:00 +9°C° 0 mm 1 m/S 675 mmHg 83%
    02:00 +9°C° 0 mm 1 m/S 675 mmHg 83%
    03:00 +9°C° 0 mm 1 m/S 675 mmHg 82%
    04:00 +9°C° 0 mm 1 m/S 675 mmHg 82%
    05:00 +11°C° 0 mm 1 m/S 675 mmHg 76%
    06:00 +12°C° 0 mm 0 m/S 676 mmHg 70%
    07:00 +14°C° 0 mm 0 m/S 676 mmHg 64%
    08:00 +15°C° 0 mm 0 m/S 677 mmHg 59%
    09:00 +18°C° 0 mm 1 m/S 677 mmHg 55%
    10:00 +20°C° 0 mm 1 m/S 677 mmHg 51%
    11:00 +19°C° 0.4 mm 1 m/S 677 mmHg 55%
    12:00 +19°C° 0.4 mm 1 m/S 677 mmHg 59%
    13:00 +19°C° 0.4 mm 1 m/S 676 mmHg 63%
    14:00 +18°C° 1.3 mm 1 m/S 676 mmHg 72%
    15:00 +15°C° 1.3 mm 1 m/S 676 mmHg 80%
    16:00 +13°C° 1.3 mm 0 m/S 675 mmHg 89%
    17:00 +13°C° 0.6 mm 0 m/S 675 mmHg 91%
    18:00 +12°C° 0.6 mm 0 m/S 675 mmHg 93%
    19:00 +12°C° 0.6 mm 1 m/S 675 mmHg 95%
    20:00 +12°C° 0.6 mm 1 m/S 676 mmHg 96%
    21:00 +11°C° 0.6 mm 1 m/S 676 mmHg 96%
    22:00 +11°C° 0.6 mm 1 m/S 676 mmHg 96%
    23:00 +10°C° 0.8 mm 1 m/S 676 mmHg 96%

    Morgen, 26 Mai, Sonntag

    Zeit Temperatur Niederschläge Wind Luftdruck Luftfeuchtigkeit
    00:00 +10°C° 0.8 mm 1 m/S 676 mmHg 96%
    01:00 +10°C° 0.8 mm 1 m/S 676 mmHg 96%
    02:00 +10°C° 0.2 mm 1 m/S 676 mmHg 95%
    03:00 +8°C° 0.2 mm 0 m/S 676 mmHg 95%
    04:00 +8°C° 0.2 mm 0 m/S 675 mmHg 95%
    05:00 +9°C° 0 mm 0 m/S 676 mmHg 94%
    06:00 +10°C° 0 mm 0 m/S 676 mmHg 93%
    07:00 +11°C° 0 mm 0 m/S 676 mmHg 92%
    08:00 +12°C° 0.1 mm 0 m/S 676 mmHg 88%
    09:00 +14°C° 0.1 mm 1 m/S 677 mmHg 84%
    10:00 +15°C° 0.1 mm 1 m/S 677 mmHg 80%
    11:00 +16°C° 0.4 mm 1 m/S 677 mmHg 77%
    12:00 +18°C° 0.4 mm 1 m/S 677 mmHg 74%
    13:00 +19°C° 0.4 mm 1 m/S 677 mmHg 71%
    14:00 +19°C° 0.8 mm 1 m/S 676 mmHg 77%
    15:00 +18°C° 0.8 mm 1 m/S 676 mmHg 82%
    16:00 +16°C° 0.8 mm 1 m/S 676 mmHg 88%
    17:00 +16°C° 0.7 mm 1 m/S 676 mmHg 90%
    18:00 +14°C° 0.7 mm 0 m/S 675 mmHg 93%
    19:00 +13°C° 0.7 mm 0 m/S 675 mmHg 95%
    20:00 +12°C° 0.4 mm 0 m/S 676 mmHg 95%
    21:00 +12°C° 0.4 mm 0 m/S 676 mmHg 95%
    22:00 +11°C° 0.4 mm 0 m/S 676 mmHg 95%
    23:00 +11°C° 0.1 mm 0 m/S 675 mmHg 96%

    übermorgen, 27 Mai, Montag

    Zeit Temperatur Niederschläge Wind Luftdruck Luftfeuchtigkeit
    00:00 +10°C° 0.1 mm 0 m/S 675 mmHg 96%
    01:00 +11°C° 0.1 mm 1 m/S 675 mmHg 96%
    02:00 +10°C° 0.1 mm 0 m/S 675 mmHg 96%
    03:00 +10°C° 0.1 mm 0 m/S 674 mmHg 96%
    04:00 +10°C° 0.1 mm 0 m/S 674 mmHg 96%
    05:00 +10°C° 0.1 mm 0 m/S 674 mmHg 95%
    06:00 +11°C° 0.1 mm 0 m/S 674 mmHg 95%
    07:00 +12°C° 0.1 mm 0 m/S 675 mmHg 94%
    08:00 +12°C° 0.2 mm 0 m/S 674 mmHg 94%
    09:00 +14°C° 0.2 mm 1 m/S 674 mmHg 94%
    10:00 +14°C° 0.2 mm 1 m/S 674 mmHg 94%
    11:00 +15°C° 0.1 mm 1 m/S 674 mmHg 86%
    12:00 +18°C° 0.1 mm 1 m/S 674 mmHg 78%
    13:00 +20°C° 0.1 mm 1 m/S 674 mmHg 71%
    14:00 +19°C° 0.5 mm 1 m/S 673 mmHg 77%
    15:00 +18°C° 0.5 mm 1 m/S 673 mmHg 84%
    16:00 +16°C° 0.5 mm 2 m/S 673 mmHg 91%
    17:00 +16°C° 0.7 mm 1 m/S 672 mmHg 93%
    18:00 +15°C° 0.7 mm 1 m/S 672 mmHg 95%
    19:00 +14°C° 0.7 mm 1 m/S 672 mmHg 97%
    20:00 +14°C° 1.4 mm 1 m/S 672 mmHg 98%
    21:00 +13°C° 1.4 mm 1 m/S 672 mmHg 98%
    22:00 +13°C° 1.4 mm 1 m/S 672 mmHg 98%
    23:00 +12°C° 3.2 mm 1 m/S 671 mmHg 98%

    28 Mai, Dienstag

    Zeit Temperatur Niederschläge Wind Luftdruck Luftfeuchtigkeit
    00:00 +12°C° 3.2 mm 1 m/S 671 mmHg 98%
    01:00 +12°C° 3.2 mm 1 m/S 671 mmHg 98%
    02:00 +12°C° 4.1 mm 1 m/S 670 mmHg 99%
    03:00 +11°C° 4.1 mm 0 m/S 670 mmHg 99%
    04:00 +10°C° 4.1 mm 0 m/S 670 mmHg 99%
    05:00 +11°C° 2.6 mm 1 m/S 670 mmHg 99%
    06:00 +11°C° 2.6 mm 1 m/S 669 mmHg 98%
    07:00 +11°C° 2.6 mm 1 m/S 669 mmHg 98%
    08:00 +11°C° 2.6 mm 1 m/S 669 mmHg 98%
    09:00 +11°C° 2.6 mm 1 m/S 669 mmHg 99%
    10:00 +10°C° 2.6 mm 1 m/S 669 mmHg 99%
    11:00 +10°C° 2.1 mm 1 m/S 670 mmHg 98%
    12:00 +10°C° 2.1 mm 1 m/S 670 mmHg 98%
    13:00 +10°C° 2.1 mm 1 m/S 670 mmHg 98%
    14:00 +10°C° 0.8 mm 1 m/S 670 mmHg 97%
    15:00 +10°C° 0.8 mm 1 m/S 670 mmHg 97%
    16:00 +10°C° 0.8 mm 1 m/S 671 mmHg 96%
    17:00 +10°C° 0.6 mm 1 m/S 671 mmHg 97%
    18:00 +10°C° 0.6 mm 1 m/S 671 mmHg 97%
    19:00 +10°C° 0.6 mm 1 m/S 672 mmHg 98%
    20:00 +9°C° 1 mm 1 m/S 672 mmHg 98%
    21:00 +9°C° 1 mm 1 m/S 672 mmHg 99%
    22:00 +9°C° 1 mm 1 m/S 673 mmHg 99%
    23:00 +9°C° 0.9 mm 1 m/S 673 mmHg 99%

    29 Mai, Mittwoch

    Zeit Temperatur Niederschläge Wind Luftdruck Luftfeuchtigkeit
    00:00 +9°C° 0.9 mm 1 m/S 673 mmHg 99%
    01:00 +9°C° 0.9 mm 1 m/S 673 mmHg 99%
    02:00 +9°C° 0.9 mm 1 m/S 673 mmHg 99%
    03:00 +9°C° 0.9 mm 1 m/S 673 mmHg 99%
    04:00 +8°C° 0.9 mm 1 m/S 673 mmHg 99%
    05:00 +7°C° 1 mm 2 m/S 673 mmHg 99%
    06:00 +7°C° 1 mm 2 m/S 674 mmHg 99%
    07:00 +7°C° 1 mm 2 m/S 674 mmHg 99%
    08:00 +7°C° 0.5 mm 2 m/S 675 mmHg 98%
    09:00 +7°C° 0.5 mm 2 m/S 675 mmHg 97%
    10:00 +8°C° 0.5 mm 2 m/S 676 mmHg 97%
    11:00 +8°C° 0.3 mm 2 m/S 676 mmHg 96%
    12:00 +8°C° 0.3 mm 2 m/S 676 mmHg 96%
    13:00 +8°C° 0.3 mm 2 m/S 677 mmHg 96%
    14:00 +8°C° 0.3 mm 2 m/S 677 mmHg 96%
    15:00 +8°C° 0.3 mm 2 m/S 677 mmHg 97%
    16:00 +8°C° 0.3 mm 2 m/S 678 mmHg 98%
    17:00 +7°C° 0.3 mm 2 m/S 678 mmHg 98%
    18:00 +8°C° 0.3 mm 1 m/S 678 mmHg 98%
    19:00 +8°C° 0.3 mm 1 m/S 679 mmHg 98%
    20:00 +8°C° 0.1 mm 1 m/S 679 mmHg 98%
    21:00 +7°C° 0.1 mm 1 m/S 680 mmHg 99%
    22:00 +6°C° 0.1 mm 0 m/S 680 mmHg 99%
    23:00 +6°C° 0 mm 0 m/S 680 mmHg 98%

    30 Mai, Donnerstag

    Zeit Temperatur Niederschläge Wind Luftdruck Luftfeuchtigkeit
    00:00 +5°C° 0 mm 0 m/S 680 mmHg 98%
    01:00 +5°C° 0 mm 0 m/S 680 mmHg 98%
    02:00 +5°C° 0 mm 0 m/S 680 mmHg 98%
    03:00 +4°C° 0 mm 0 m/S 680 mmHg 98%
    04:00 +5°C° 0 mm 1 m/S 680 mmHg 97%
    05:00 +5°C° 0 mm 0 m/S 681 mmHg 95%
    06:00 +6°C° 0 mm 0 m/S 681 mmHg 93%
    07:00 +7°C° 0 mm 0 m/S 681 mmHg 91%
    08:00 +10°C° 0.1 mm 1 m/S 681 mmHg 83%
    09:00 +11°C° 0.1 mm 1 m/S 682 mmHg 75%
    10:00 +13°C° 0.1 mm 1 m/S 682 mmHg 68%
    11:00 +13°C° 0.1 mm 1 m/S 681 mmHg 66%
    12:00 +13°C° 0.1 mm 2 m/S 681 mmHg 65%
    13:00 +13°C° 0.1 mm 2 m/S 681 mmHg 64%
    14:00 +13°C° 0.1 mm 2 m/S 681 mmHg 65%
    15:00 +14°C° 0.1 mm 2 m/S 681 mmHg 67%
    16:00 +14°C° 0.1 mm 2 m/S 681 mmHg 68%
    17:00 +13°C° 0.2 mm 1 m/S 681 mmHg 75%
    18:00 +12°C° 0.2 mm 1 m/S 681 mmHg 82%
    19:00 +11°C° 0.2 mm 1 m/S 681 mmHg 88%
    20:00 +10°C° 0.1 mm 1 m/S 681 mmHg 91%
    21:00 +9°C° 0.1 mm 1 m/S 681 mmHg 93%
    22:00 +8°C° 0.1 mm 1 m/S 681 mmHg 95%
    23:00 +8°C° 0 mm 1 m/S 681 mmHg 95%
    Mehr zeigen